Home   Weather   Hockenheim   Past weeks

Flag for Germany Past Weather in Hockenheim, Baden-Württemberg, Germany — Yesterday and Last 2 Weeks

54 °F


Feels Like: 53 °F
Forecast: 42 / 56 °F
Wind: 3 mph from Northeast

Location: Mannheim City

Current Time: Oct 25, 2016 at 11:06:17 PM

Latest Report: Oct 25, 2016 at 8:50 PM

Visibility: N/A

Pressure: 30.27 "Hg

Humidity: 100%

Dew Point: 54 °F

Location of HockenheimLocation

Past Weather in Hockenheim — Graph


Hockenheim Temperature Yesterday

Maximum temperature yesterday: 55 °F (at 4:50 PM)
Minimum temperature yesterday: 50 °F (at 5:50 AM)
Average temperature yesterday: 53 °F

High & Low Weather Summary for the Past Weeks

High63 °F (Oct 15, 5:50 PM)100% (Oct 11, 5:20 AM)30.27 "Hg (Oct 11, 5:20 AM)
Low39 °F (Oct 13, 5:20 AM)51% (Oct 11, 2:20 PM)29.65 "Hg (Oct 14, 5:50 PM)
Average51 °F86%30.02 "Hg
* Reported Oct 10 8:20 PM — Oct 25 8:50 PM, Hockenheim, Weather by CustomWeather, © 2016

Note: Actual official high and low records may vary slightly from our data, if they occured in-between our weather recording intervals... More about our weather records


Hockenheim Weather History for the Previous 24 Hours

Scroll right to see more
Time TempWeatherWind HumidityBarometerVisibility
8:50 PM
Tue, Oct 25
54 °FOvercast.3 mph100%30.27 "HgN/A
8:20 PM55 °FOvercast.2 mph88%30.27 "HgN/A
7:50 PM55 °FOvercast.3 mph88%30.27 "HgN/A
7:20 PM55 °FOvercast.3 mph88%30.24 "HgN/A
6:50 PM55 °FOvercast.3 mph82%30.24 "HgN/A
6:20 PM57 °FOvercast.3 mph77%30.24 "HgN/A
5:50 PM57 °FMostly cloudy.5 mph77%30.24 "HgN/A
5:20 PM57 °FMostly cloudy.3 mph77%30.21 "HgN/A
4:50 PM57 °FPartly sunny.5 mph77%30.21 "HgN/A
4:20 PM57 °FPartly sunny.5 mph77%30.21 "HgN/A
3:50 PM57 °FPartly sunny.5 mph82%30.21 "HgN/A
3:20 PM57 °FMostly cloudy.5 mph82%30.21 "HgN/A
2:50 PM59 °FBroken clouds.5 mph82%30.18 "HgN/A
2:20 PM59 °FScattered clouds.6 mph82%30.18 "HgN/A
1:50 PM59 °FPassing clouds.6 mph77%30.18 "HgN/A
1:20 PM59 °FPassing clouds.8 mph82%30.18 "HgN/A
12:50 PM59 °FPassing clouds.7 mph88%30.18 "HgN/A
12:20 PM59 °FPassing clouds.5 mph94%30.18 "HgN/A
11:50 AM57 °FPartly sunny.2 mph100%30.18 "HgN/A
11:20 AM55 °FPartly sunny.5 mph100%30.18 "HgN/A
10:50 AM55 °FPartly sunny.2 mph100%30.18 "HgN/A
10:20 AM54 °FPartly sunny.3 mph100%30.18 "HgN/A
9:50 AM54 °FOvercast.2 mph100%30.18 "HgN/A
9:20 AM52 °FLow clouds.3 mph100%30.15 "Hg5 mi
8:50 AM50 °FPartly sunny.2 mph100%30.15 "Hg5 mi
8:20 AM50 °FFog.No wind100%30.12 "Hg5 mi
7:50 AM50 °FPassing clouds.2 mph100%30.12 "HgN/A
7:20 AM52 °FPartly cloudy.2 mph100%30.12 "HgN/A
6:50 AM52 °FMostly cloudy.2 mph100%30.09 "HgN/A
6:20 AM52 °FOvercast.1 mph100%30.07 "HgN/A
5:50 AM52 °FLight rain. Overcast.2 mph100%30.07 "HgN/A
Weather by CustomWeather, © 2016

See weather overviewHow to use our weather pages